📊 Raw Sensor Data
Showing records 45926 to 45950 of 85,062 total
| ID | Distance (ft) | Battery V | Battery A | Int Temp (°F) | Int Humid (%) | Ext Temp (°F) | Solar V | RSSI | SNR | Time Stamp |
|---|---|---|---|---|---|---|---|---|---|---|
| 39149 | -- | 3.96 | -5 | 49 | 44 | 48 | 0.00 | -74 | 8 | 04/29/2025 01:15 AM |
| 39148 | -- | 4.02 | -5 | 51 | 43 | 51 | 0.10 | -74 | 8 | 04/29/2025 01:00 AM |
| 39147 | -- | 3.96 | -5 | 53 | 42 | 55 | 0.00 | -74 | 8 | 04/29/2025 12:46 AM |
| 39146 | -- | 3.96 | -5 | 53 | 43 | 55 | 0.00 | -74 | 8 | 04/29/2025 12:31 AM |
| 39145 | 15.3 | 4.02 | -5 | 53 | 43 | 56 | 0.00 | -73 | 8 | 04/29/2025 12:15 AM |
| 39144 | -- | 3.96 | -5 | 54 | 43 | 54 | 0.00 | -73 | 8 | 04/29/2025 12:00 AM |
| 39143 | 15.3 | 3.96 | -5 | 55 | 42 | 56 | 0.00 | -74 | 8 | 04/28/2025 11:45 PM |
| 39142 | 15.3 | 3.96 | -5 | 55 | 42 | 57 | 0.00 | -73 | 8 | 04/28/2025 11:30 PM |
| 39141 | 15.3 | 4.02 | -5 | 55 | 43 | 57 | 0.10 | -71 | 8 | 04/28/2025 11:15 PM |
| 39140 | 15.3 | 4.02 | -5 | 55 | 43 | 57 | 0.10 | -72 | 8 | 04/28/2025 11:00 PM |
| 39139 | 15.3 | 3.97 | -5 | 55 | 44 | 56 | 0.10 | -73 | 8 | 04/28/2025 10:45 PM |
| 39138 | 15.3 | 3.97 | -5 | 56 | 44 | 57 | 0.00 | -73 | 8 | 04/28/2025 10:30 PM |
| 39137 | 15.3 | 4.03 | -5 | 57 | 44 | 58 | 0.00 | -75 | 8 | 04/28/2025 10:15 PM |
| 39136 | 15.3 | 4.03 | -5 | 57 | 45 | 58 | 0.00 | -72 | 6 | 04/28/2025 10:00 PM |
| 39135 | 15.3 | 3.97 | -5 | 58 | 45 | 59 | 0.00 | -72 | 8 | 04/28/2025 09:45 PM |
| 39134 | 15.3 | 3.97 | -5 | 58 | 45 | 59 | 0.00 | -72 | 8 | 04/28/2025 09:30 PM |
| 39133 | 15.2 | 3.97 | -5 | 59 | 46 | 60 | 0.00 | -74 | 7 | 04/28/2025 09:15 PM |
| 39132 | 15.2 | 3.97 | -5 | 59 | 47 | 60 | 0.00 | -73 | 8 | 04/28/2025 09:00 PM |
| 39131 | 15.2 | 3.97 | -5 | 60 | 48 | 61 | 0.00 | -72 | 7 | 04/28/2025 08:45 PM |
| 39130 | 15.3 | 3.97 | -5 | 62 | 50 | 62 | 0.00 | -73 | 8 | 04/28/2025 08:30 PM |
| 39129 | 15.2 | 3.98 | -5 | 63 | 51 | 62 | 0.00 | -71 | 8 | 04/28/2025 08:15 PM |
| 39128 | 15.2 | 3.97 | -9 | 66 | 52 | 64 | 3.50 | -72 | 8 | 04/28/2025 08:00 PM |
| 39127 | 15.3 | 3.98 | 0 | 70 | 52 | 66 | 4.50 | -72 | 6 | 04/28/2025 07:45 PM |
| 39126 | 15.3 | 4.05 | 0 | 75 | 50 | 69 | 4.60 | -71 | 7 | 04/28/2025 07:30 PM |
| 39125 | 15.3 | 4.06 | 8 | 78 | 50 | 72 | 4.50 | -73 | 8 | 04/28/2025 07:15 PM |